Location: Stigler
(35.2540°N, 95.1230°W)
Time: 12:59:04
(UTC-05:00)

Daily predictions for brighter satellites

Satellite Brightness Start Highest point End
(mag) Time Altitude Azimuth Time Altitude Azimuth Time Altitude Azimuth
Cosmos 2278 3.8 20:06:50 10° SSW 20:12:30 88° WNW 20:18:14 10° NNE
OTV 4 0.7 20:17:01 10° WNW 20:19:56 61° SSW 20:22:52 10° ESE
OAO 2 Rocket 3.3 20:17:52 10° W 20:22:51 87° S 20:27:56 10° E
Meteor 2-4 Rocket 4.1 20:17:08 10° NNW 20:23:01 75° W 20:28:55 10° S
Cosmos 1980 Rocket 3.3 20:19:54 10° SSE 20:24:12 22° E 20:28:30 10° NE
USA 186 3.2 20:22:58 10° ESE 20:25:05 17° ENE 20:27:06 10° NNE
ALOS 2.8 20:21:02 10° SE 20:25:21 39° ENE 20:29:42 10° N
Cosmos 2369 4.0 20:21:47 10° SSW 20:27:26 75° WNW 20:33:09 10° NNE
H-2A R/B 3.7 20:25:13 10° SE 20:28:38 30° ENE 20:32:07 10° N
Cosmos 1025 Rocket 4.4 20:25:31 10° NNW 20:29:38 43° W 20:33:42 10° SSW
FREGAT/IRIS 4.3 20:27:22 10° S 20:30:19 38° W 20:33:17 10° NNW
HJ-1C 3.8 20:27:51 10° S 20:31:06 65° W 20:34:23 10° NNW
Cosmos 1821 Rocket 4.4 20:26:33 10° SSW 20:32:36 67° W 20:38:40 10° N
Cosmos 1898 Rocket 4.5 20:28:23 10° N 20:32:58 29° ENE 20:37:06 12° ESE
Cosmos 1605 Rocket 4.0 20:29:31 10° S 20:35:49 73° E 20:42:04 10° N
Meteor 2-15 4.5 20:30:14 10° N 20:36:19 89° W 20:42:22 10° S
FENGYUN 3A 3.8 20:33:19 10° SSE 20:38:31 55° ENE 20:43:44 10° N
DELTA 2 R/B (1) 3.6 20:33:32 10° WNW 20:39:08 77° NNE 20:43:49 15° ESE
Cosmos 1656 3.6 20:33:45 10° SSW 20:39:21 77° ESE 20:44:55 10° NNE
Cosmos 2084 4.2 20:35:46 10° NNW 20:39:31 34° NE 20:42:28 16° ESE
Cosmos 468 Rocket 4.1 20:36:22 10° S 20:41:17 50° ESE 20:46:14 10° NNE
Cosmos 1626 Rocket 3.8 20:38:58 10° N 20:43:13 48° E 20:47:24 10° SSE
Meteor 2-15 Rocket 4.4 20:37:17 10° N 20:43:22 89° E 20:49:26 10° S
Cosmos 1455 Rocket 3.8 20:40:15 10° SSW 20:44:29 56° W 20:48:47 10° N
Cosmos 1975 2.8 20:41:00 10° S 20:45:03 66° E 20:49:08 10° NNE
EO 1 Delta rocket 4.1 20:41:12 10° NNE 20:46:05 71° E 20:51:58 10° S
CZ-3C R/B 4.1 19:20:07 10° WSW 20:47:07 48° SSW 20:55:35 14° SE
Tiangong 1 2.8 20:45:34 10° NW 20:48:11 24° NNE 20:50:13 13° ENE
Cosmos 220 Rocket 3.9 20:46:28 10° N 20:50:40 65° ENE 20:54:25 13° SSE
Lacrosse 5 rocket 1.1 20:48:02 10° NW 20:51:43 76° SW 20:54:20 17° SSE
CZ-2D R/B 3.2 20:48:58 10° SSE 20:52:48 70° ENE 20:56:41 10° N
Cosmos 1602 Rocket 3.5 20:49:03 10° N 20:53:29 65° E 20:57:50 10° SSE
Cosmos 1500 3.3 20:50:13 10° S 20:53:50 49° E 20:57:29 10° NNE
Cosmos 1814 Rocket 4.1 20:48:50 10° S 20:54:03 57° ESE 20:59:14 10° NNE
Cosmos 2227 Rocket 2.6 20:52:13 10° NNW 20:57:49 65° WSW 21:03:23 10° S
Cosmos 2322 Rocket 4.0 21:00:47 12° ENE 21:00:47 12° ENE 21:01:40 10° ENE
Cosmos 2061 Rocket 4.4 20:54:06 10° SSE 20:59:57 42° E 21:05:46 10° NNE
CZ-4B DEB 3.9 21:00:24 10° S 21:03:33 45° W 21:06:44 10° NNW
Cosmos 1340 4.3 21:01:32 10° NNE 21:03:55 19° ENE 21:03:55 19° ENE
Cosmos 2297 Rocket 2.5 21:07:06 10° NNW 21:12:44 69° WSW 21:18:08 11° S
Cosmos 1459 Rocket 4.0 21:06:56 10° SSE 21:12:47 55° E 21:18:43 10° NNE
Cosmos 2360 4.4 21:09:44 10° S 21:15:07 45° ESE 21:20:33 10° NE
Cosmos 2058 Rocket 4.5 21:22:25 23° ENE 21:22:25 23° ENE 21:24:52 10° NNE
Cosmos 1515 3.8 21:17:29 10° N 21:21:20 76° W 21:23:40 22° S
Chunghua 1 4.5 21:18:01 10° W 21:21:51 86° S 21:22:46 51° E
Iridium 4 Rocket 3.3 21:17:24 10° N 21:22:16 79° W 21:26:32 11° S
Cosmos 1606 Rocket 3.8 21:22:37 41° ESE 21:23:15 44° E 21:27:27 10° NNE
Cosmos 1939 Rocket 3.4 21:24:09 40° E 21:24:27 41° ENE 21:28:23 10° N
Envisat 3.3 21:26:38 38° ESE 21:27:50 45° ENE 21:32:40 10° N
Resurs 01 Rocket 4.4 21:26:27 10° SW 21:29:14 16° W 21:32:01 10° NW
Lacrosse 5 1.8 21:26:31 10° NW 21:31:35 69° NE 21:32:58 46° ESE
Centaur AC-125 4.3 21:07:58 10° W 21:31:49 49° SSW 21:34:17 32° SE
Cosmos 1937 Rocket 3.4 21:27:50 10° NNW 21:33:08 76° ENE 21:35:08 39° SSE
Centaur D-1A AC-32 3.7 21:32:55 10° SW 21:34:55 17° SSW 21:34:55 17° SSW
BREEZE-M DEB (TANK) 3.9 21:33:28 10° NNW 21:35:26 20° NE 21:35:26 20° NE
Cosmos 1743 2.7 21:34:26 35° S 21:36:01 85° W 21:39:58 10° N
Cosmos 2298 Rocket 4.4 21:31:36 10° NNW 21:36:51 62° WSW 21:40:11 22° S
SPOT 5 3.7 21:38:12 33° ENE 21:38:12 33° ENE 21:42:16 10° N
Cosmos 990 Rocket 3.9 21:37:01 10° NNW 21:42:15 67° ENE 21:43:13 54° SE
SJ-11-01 4.2 21:41:58 43° S 21:43:30 84° WSW 21:48:13 10° NNW
Cosmos 1697 Rocket 4.0 21:38:33 10° SW 21:43:50 40° WNW 21:49:09 10° N
Cosmos 1726 Rocket 3.5 21:46:06 67° ENE 21:46:06 67° ENE 21:50:13 10° NNE
ERS-1 Rocket 2.9 21:48:35 45° S 21:50:08 82° WSW 21:55:11 10° NNW
CZ-4 DEB 4.0 21:51:47 40° NW 21:51:47 40° NW 21:54:08 10° NNW
SL-08 R/B 4.4 21:50:02 39° SSE 21:52:27 69° E 21:58:35 10° NNE
H-2A R/B 4.3 21:56:29 10° NE 21:56:29 10° NE 21:56:43 10° NE
RESURS DK-1 2.7 21:50:34 10° NNW 21:54:39 59° WSW 21:54:48 59° WSW
Cosmos 1802 Rocket 4.1 21:48:56 10° S 21:55:19 77° W 22:01:47 10° N
SL-16 R/B 3.0 21:57:53 35° NE 21:57:53 35° NE 22:01:24 10° NNE
ARGOS 4.4 21:57:43 27° NE 21:57:43 27° NE 22:01:16 10° N
Cosmos 836 Rocket 4.3 21:58:49 64° S 21:59:38 81° ESE 22:04:57 10° NNE
Cosmos 2016 Rocket 4.0 21:58:34 22° S 22:02:41 80° W 22:08:54 10° N
Cosmos 1763 Rocket 4.1 21:58:41 10° SSW 22:03:40 53° WNW 22:08:38 10° N
Cosmos 1825 Rocket 3.9 21:59:33 10° NNW 22:03:55 61° W 22:04:05 60° WSW
MetOp-B 4.3 22:07:20 55° NE 22:07:20 55° NE 22:12:04 10° N
OAO 2 Rocket 3.4 22:02:38 10° W 22:07:11 67° SW 22:07:11 67° SW
Cosmos 1980 Rocket 3.4 22:02:29 10° SW 22:07:50 42° WNW 22:13:15 10° N
H-2A R/B 3.0 22:15:02 41° NNW 22:15:02 41° NNW 22:17:49 10° NNW
Cosmos 2098 Rocket 4.0 22:12:46 39° S 22:15:31 84° W 22:21:22 10° N
Cosmos 1953 Rocket 4.1 22:11:10 10° NNW 22:15:00 56° NW 22:15:00 56° NW
Cosmos 1375 Rocket 4.4 22:10:50 10° SSW 22:17:24 89° ESE 22:24:02 10° NNE
Cosmos 1125 Rocket 4.2 22:16:16 10° N 22:20:07 45° NNE 22:20:07 45° NNE
Tiangong 1 4.5 22:21:50 10° WNW 22:22:11 13° WNW 22:22:11 13° WNW
Cosmos 2263 Rocket 3.5 22:31:15 10° N 22:34:33 29° NNE 22:34:33 29° NNE
ASTEX 1 4.3 22:34:08 10° N 22:38:30 46° WNW 22:38:30 46° WNW
Cosmos 2322 Rocket 2.7 22:42:28 55° NW 22:42:28 55° NW 22:47:27 10° NNE
Tsikada Rocket 4.2 22:41:07 10° NNW 22:47:16 67° W 22:47:16 67° W
Lacrosse 5 4.5 23:11:10 10° W 23:12:11 13° W 23:12:11 13° W
H-2A R/B 4.4 23:37:08 18° NNW 23:37:08 18° NNW 23:38:25 10° NNW
SL-16 R/B 4.4 23:39:37 20° WNW 23:40:18 21° WNW 23:44:28 10° N
